Time,TemperatureF,DewpointF,PressureIn,WindDirection,WindDirectionDegrees,WindSpeedMPH,WindSpeedGustMPH,Humidity,HourlyPrecipIn,Conditions,Clouds,dailyrainin,SoftwareType,DateUTC
2013-03-01 16:47:00,30.4,23.0,29.68,NNW,338,1.8,1.8,74,0.00,,,0.00,WUHU216HW,2013-03-01 21:47:00,
2013-03-01 16:52:00,30.2,22.9,29.68,NNW,338,2.0,4.0,74,0.00,,,0.00,WUHU216HW,2013-03-01 21:52:00,
2013-03-01 16:57:00,30.2,22.9,29.68,NE,45,2.9,4.0,74,0.00,,,0.00,WUHU216HW,2013-03-01 21:57:00,
2013-03-01 17:02:00,30.2,23.2,29.67,NW,315,1.1,3.8,75,0.00,,,0.00,WUHU216HW,2013-03-01 22:02:00,
2013-03-01 17:07:00,30.2,23.2,29.67,North,0,0.2,2.9,75,0.00,,,0.00,WUHU216HW,2013-03-01 22:07:00,
2013-03-01 17:12:00,30.1,23.4,29.68,NNW,338,1.8,2.0,76,0.00,,,0.00,WUHU216HW,2013-03-01 22:12:00,
2013-03-01 17:17:00,30.2,23.2,29.67,NW,315,0.0,4.0,75,0.00,,,0.00,WUHU216HW,2013-03-01 22:17:00,
2013-03-01 17:22:00,30.2,23.2,29.67,NW,315,0.2,4.0,75,0.00,,,0.00,WUHU216HW,2013-03-01 22:22:00,
2013-03-01 17:27:00,30.2,22.9,29.67,NNW,338,1.6,2.7,74,0.00,,,0.00,WUHU216HW,2013-03-01 22:27:00,
2013-03-01 17:32:00,30.2,23.2,29.67,NNW,338,0.7,4.0,75,0.00,,,0.00,WUHU216HW,2013-03-01 22:32:00,
2013-03-01 17:37:00,30.2,23.2,29.67,NNW,338,0.0,4.0,75,0.00,,,0.00,WUHU216HW,2013-03-01 22:37:00,
2013-03-01 17:42:00,30.2,22.9,29.67,NNW,338,2.0,3.6,74,0.00,,,0.00,WUHU216HW,2013-03-01 22:42:00,
2013-03-01 17:47:00,30.2,23.2,29.67,ESE,113,0.4,3.6,75,0.00,,,0.00,WUHU216HW,2013-03-01 22:47:00,
2013-03-01 17:52:00,30.2,23.2,29.68,West,270,0.0,2.0,75,0.00,,,0.00,WUHU216HW,2013-03-01 22:52:00,
2013-03-01 17:57:00,30.1,23.0,29.68,NNE,23,0.2,1.8,75,0.00,,,0.00,WUHU216HW,2013-03-01 22:57:00,
2013-03-01 18:02:00,29.9,22.9,29.68,NW,315,2.2,3.8,75,0.00,,,0.00,WUHU216HW,2013-03-01 23:02:00,
2013-03-01 18:07:00,29.9,23.2,29.68,West,270,1.8,3.8,76,0.00,,,0.00,WUHU216HW,2013-03-01 23:07:00,
2013-03-01 18:12:00,29.9,23.2,29.68,SE,135,1.1,3.6,76,0.00,,,0.00,WUHU216HW,2013-03-01 23:12:00,
2013-03-01 18:17:00,29.9,23.2,29.68,NNW,338,0.2,3.6,76,0.00,,,0.00,WUHU216HW,2013-03-01 23:17:00,
2013-03-01 18:22:00,29.9,23.2,29.68,NNW,338,0.0,2.5,76,0.00,,,0.00,WUHU216HW,2013-03-01 23:22:00,
2013-03-01 18:27:00,29.9,22.9,29.69,NNW,338,0.4,1.1,75,0.00,,,0.00,WUHU216HW,2013-03-01 23:27:00,
2013-03-01 18:32:00,29.9,23.5,29.69,SE,135,0.4,1.1,77,0.00,,,0.00,WUHU216HW,2013-03-01 23:32:00,
2013-03-01 18:37:00,29.9,23.2,29.69,WNW,293,1.1,3.4,76,0.00,,,0.00,WUHU216HW,2013-03-01 23:37:00,
2013-03-01 18:42:00,29.7,23.1,29.69,NNW,338,0.2,3.4,76,0.00,,,0.00,WUHU216HW,2013-03-01 23:42:00,
2013-03-01 18:47:00,29.7,23.1,29.69,NW,315,1.8,1.8,76,0.00,,,0.00,WUHU216HW,2013-03-01 23:47:00,
2013-03-01 18:52:00,29.7,23.1,29.69,NE,45,0.0,1.8,76,0.00,,,0.00,WUHU216HW,2013-03-01 23:52:00,
2013-03-01 18:57:00,29.5,22.9,29.69,NNW,338,1.1,1.8,76,0.00,,,0.00,WUHU216HW,2013-03-01 23:57:00,
2013-03-01 19:02:00,29.7,23.1,29.69,WNW,293,0.0,2.2,76,0.00,,,0.00,WUHU216HW,2013-03-02 00:02:00,
2013-03-01 19:07:00,29.5,22.9,29.69,NW,315,1.8,2.2,76,0.00,,,0.00,WUHU216HW,2013-03-02 00:07:00,
2013-03-01 19:12:00,29.5,22.5,29.69,East,90,0.2,1.8,75,0.00,,,0.00,WUHU216HW,2013-03-02 00:12:00,
2013-03-01 19:17:00,29.5,22.9,29.69,NE,45,0.2,2.0,76,0.00,,,0.00,WUHU216HW,2013-03-02 00:17:00,
2013-03-01 19:22:00,29.5,22.9,29.69,NNW,338,1.3,3.8,76,0.00,,,0.00,WUHU216HW,2013-03-02 00:22:00,
2013-03-01 19:27:00,29.3,22.7,29.69,East,90,0.9,4.3,76,0.00,,,0.00,WUHU216HW,2013-03-02 00:27:00,
2013-03-01 19:32:00,29.2,22.2,29.69,NW,315,1.6,4.3,75,0.00,,,0.00,WUHU216HW,2013-03-02 00:32:00,
2013-03-01 19:37:00,29.2,22.2,29.69,NNW,338,0.0,4.0,75,0.00,,,0.00,WUHU216HW,2013-03-02 00:37:00,
2013-03-01 19:42:00,29.2,22.5,29.69,North,0,0.0,1.8,76,0.00,,,0.00,WUHU216HW,2013-03-02 00:42:00,
2013-03-01 19:47:00,29.2,22.2,29.70,WNW,293,1.1,2.5,75,0.00,,,0.00,WUHU216HW,2013-03-02 00:47:00,
2013-03-01 19:52:00,29.2,22.2,29.70,NW,315,2.2,3.1,75,0.00,,,0.00,WUHU216HW,2013-03-02 00:52:00,
2013-03-01 19:57:00,29.2,22.5,29.70,NNW,338,3.8,3.8,76,0.00,,,0.00,WUHU216HW,2013-03-02 00:57:00,
2013-03-01 20:02:00,29.3,22.7,29.70,NNW,338,2.0,5.4,76,0.00,,,0.00,WUHU216HW,2013-03-02 01:02:00,
2013-03-01 20:08:00,29.3,22.4,29.70,NNW,338,2.9,6.5,75,0.00,,,0.00,WUHU216HW,2013-03-02 01:08:00,
2013-03-01 20:13:00,29.3,22.1,29.70,WNW,293,2.2,6.5,74,0.00,,,0.00,WUHU216HW,2013-03-02 01:13:00,
2013-03-01 20:17:00,29.3,22.4,29.70,NW,315,1.1,4.5,75,0.00,,,0.00,WUHU216HW,2013-03-02 01:17:00,
2013-03-01 20:22:00,29.3,22.7,29.70,WNW,293,1.1,4.5,76,0.00,,,0.00,WUHU216HW,2013-03-02 01:22:00,
2013-03-01 20:27:00,29.3,22.7,29.70,NW,315,0.9,1.1,76,0.00,,,0.00,WUHU216HW,2013-03-02 01:27:00,
2013-03-01 20:33:00,29.2,22.5,29.70,WNW,293,0.4,2.5,76,0.00,,,0.00,WUHU216HW,2013-03-02 01:33:00,
2013-03-01 20:38:00,29.2,22.2,29.70,NW,315,1.1,2.5,75,0.00,,,0.00,WUHU216HW,2013-03-02 01:38:00,
2013-03-01 20:43:00,29.2,22.2,29.71,West,270,0.2,1.3,75,0.00,,,0.00,WUHU216HW,2013-03-02 01:43:00,
2013-03-01 20:48:00,29.2,22.2,29.71,NW,315,2.7,3.4,75,0.00,,,0.00,WUHU216HW,2013-03-02 01:48:00,
2013-03-01 20:53:00,29.2,22.5,29.71,North,0,0.7,3.4,76,0.00,,,0.00,WUHU216HW,2013-03-02 01:53:00,
2013-03-01 20:58:00,29.2,22.2,29.71,WSW,248,0.0,3.4,75,0.00,,,0.00,WUHU216HW,2013-03-02 01:58:00,
2013-03-01 21:03:00,29.2,22.2,29.70,WSW,248,0.2,1.6,75,0.00,,,0.00,WUHU216HW,2013-03-02 02:03:00,
2013-03-01 21:08:00,29.2,22.2,29.70,North,0,0.4,0.9,75,0.00,,,0.00,WUHU216HW,2013-03-02 02:08:00,
2013-03-01 21:13:00,29.2,22.2,29.70,WSW,248,0.0,1.8,75,0.00,,,0.00,WUHU216HW,2013-03-02 02:13:00,
2013-03-01 21:18:00,29.2,22.5,29.70,SW,225,0.9,3.1,76,0.00,,,0.00,WUHU216HW,2013-03-02 02:18:00,
2013-03-01 21:23:00,29.0,22.3,29.70,NNW,338,0.7,3.1,76,0.00,,,0.00,WUHU216HW,2013-03-02 02:23:00,
2013-03-01 21:28:00,29.2,22.2,29.70,NNW,338,0.4,2.0,75,0.00,,,0.00,WUHU216HW,2013-03-02 02:28:00,
2013-03-01 21:33:00,29.0,22.3,29.71,NNW,338,2.5,3.8,76,0.00,,,0.00,WUHU216HW,2013-03-02 02:33:00,
2013-03-01 21:38:00,28.8,21.9,29.71,West,270,2.2,3.8,75,0.00,,,0.00,WUHU216HW,2013-03-02 02:38:00,
2013-03-01 21:43:00,28.8,21.9,29.71,NNW,338,2.5,2.5,75,0.00,,,0.00,WUHU216HW,2013-03-02 02:43:00,
2013-03-01 21:48:00,28.6,21.7,29.71,NW,315,1.8,4.7,75,0.00,,,0.00,WUHU216HW,2013-03-02 02:48:00,
2013-03-01 21:53:00,28.6,21.7,29.71,NNW,338,0.4,4.7,75,0.00,,,0.00,WUHU216HW,2013-03-02 02:53:00,
2013-03-01 21:58:00,28.6,21.7,29.71,North,0,0.4,2.5,75,0.00,,,0.00,WUHU216HW,2013-03-02 02:58:00,
2013-03-01 22:03:00,28.4,21.5,29.71,NNW,338,0.4,2.2,75,0.00,,,0.00,WUHU216HW,2013-03-02 03:03:00,
2013-03-01 22:08:00,28.4,21.8,29.71,NW,315,1.6,3.8,76,0.00,,,0.00,WUHU216HW,2013-03-02 03:08:00,
2013-03-01 22:13:00,28.4,21.8,29.71,NW,315,1.8,3.8,76,0.00,,,0.00,WUHU216HW,2013-03-02 03:13:00,
2013-03-01 22:18:00,28.4,21.8,29.71,NNW,338,0.2,2.5,76,0.00,,,0.00,WUHU216HW,2013-03-02 03:18:00,
2013-03-01 22:23:00,28.4,21.8,29.71,NNW,338,1.6,2.5,76,0.00,,,0.00,WUHU216HW,2013-03-02 03:23:00,
2013-03-01 22:28:00,28.3,21.6,29.70,WSW,248,1.1,2.0,76,0.00,,,0.00,WUHU216HW,2013-03-02 03:28:00,
2013-03-01 22:33:00,28.1,21.4,29.70,ESE,113,0.4,2.5,76,0.00,,,0.00,WUHU216HW,2013-03-02 03:33:00,
2013-03-01 22:38:00,28.1,21.8,29.70,NW,315,3.1,3.1,77,0.00,,,0.00,WUHU216HW,2013-03-02 03:38:00,
2013-03-01 22:43:00,28.1,21.4,29.70,NNW,338,0.4,3.1,76,0.00,,,0.00,WUHU216HW,2013-03-02 03:43:00,
2013-03-01 22:48:00,28.1,21.4,29.71,NW,315,1.3,3.1,76,0.00,,,0.00,WUHU216HW,2013-03-02 03:48:00,
2013-03-01 22:53:00,28.1,21.8,29.71,NW,315,0.4,2.2,77,0.00,,,0.00,WUHU216HW,2013-03-02 03:53:00,
2013-03-01 22:58:00,28.3,21.6,29.70,WNW,293,3.4,3.4,76,0.00,,,0.00,WUHU216HW,2013-03-02 03:58:00,
2013-03-01 23:03:00,28.1,21.2,29.70,WNW,293,4.7,5.4,75,0.00,,,0.00,WUHU216HW,2013-03-02 04:03:00,
2013-03-01 23:08:00,28.1,21.2,29.70,West,270,2.5,6.3,75,0.00,,,0.00,WUHU216HW,2013-03-02 04:08:00,
2013-03-01 23:13:00,28.1,21.2,29.69,WNW,293,4.7,6.3,75,0.00,,,0.00,WUHU216HW,2013-03-02 04:13:00,
2013-03-01 23:18:00,27.9,21.2,29.69,NW,315,0.9,6.3,76,0.00,,,0.00,WUHU216HW,2013-03-02 04:18:00,
2013-03-01 23:23:00,27.9,21.0,29.69,NNE,23,0.0,4.9,75,0.00,,,0.00,WUHU216HW,2013-03-02 04:23:00,
2013-03-01 23:28:00,27.9,21.0,29.69,NW,315,0.0,2.0,75,0.00,,,0.00,WUHU216HW,2013-03-02 04:28:00,
2013-03-01 23:33:00,27.7,21.1,29.69,North,0,0.0,3.1,76,0.00,,,0.00,WUHU216HW,2013-03-02 04:33:00,
2013-03-01 23:38:00,27.7,21.1,29.69,North,0,0.7,3.1,76,0.00,,,0.00,WUHU216HW,2013-03-02 04:38:00,
2013-03-01 23:43:00,27.7,20.8,29.69,NW,315,1.1,3.1,75,0.00,,,0.00,WUHU216HW,2013-03-02 04:43:00,
2013-03-01 23:48:00,27.7,20.8,29.69,North,0,0.0,2.9,75,0.00,,,0.00,WUHU216HW,2013-03-02 04:48:00,
2013-03-01 23:53:00,27.5,20.9,29.70,NW,315,3.1,4.0,76,0.00,,,0.00,WUHU216HW,2013-03-02 04:53:00,
2013-03-01 23:58:00,27.5,20.6,29.70,North,0,0.4,4.0,75,0.00,,,0.00,WUHU216HW,2013-03-02 04:58:00,